| time (UTC) | temp F | wind direction | speed MPH | gust MPH | rain 1hr in | rain 24hr in | rain mn in | humidity % | barometer mb |
| 20260508025840 | 57 | 273 | 2.0 | 4.0 | 0.00 | 0.01 | 0.01 | 51 | 1009.6 |
| 20260508025347 | 58 | 273 | 3.0 | 4.0 | 0.00 | 0.01 | 0.01 | 50 | 1009.6 |
| 20260508024831 | 58 | 289 | 2.0 | 4.0 | 0.00 | 0.01 | 0.01 | 49 | 1009.6 |
| 20260508024339 | 58 | 286 | 3.0 | 5.0 | 0.00 | 0.01 | 0.01 | 48 | 1009.5 |
| 20260508023903 | 58 | 298 | 3.0 | 5.0 | 0.00 | 0.01 | 0.01 | 49 | 1009.5 |
| 20260508023327 | 58 | 286 | 3.0 | 5.0 | 0.00 | 0.01 | 0.01 | 49 | 1009.5 |
| 20260508022832 | 58 | 265 | 3.0 | 5.0 | 0.00 | 0.01 | 0.01 | 49 | 1009.5 |
| 20260508022335 | 59 | 283 | 3.0 | 5.0 | 0.00 | 0.01 | 0.01 | 48 | 1009.4 |
| 20260508021840 | 58 | 279 | 3.0 | 5.0 | 0.00 | 0.01 | 0.01 | 48 | 1009.4 |
| 20260508021324 | 58 | 307 | 2.0 | 3.0 | 0.00 | 0.01 | 0.01 | 49 | 1009.4 |
| 20260508020827 | 58 | 307 | 2.0 | 3.0 | 0.00 | 0.01 | 0.01 | 50 | 1009.4 |
| 20260508020335 | 58 | 307 | 2.0 | 3.0 | 0.00 | 0.01 | 0.01 | 50 | 1009.2 |
| 20260508015840 | 58 | 307 | 2.0 | 3.0 | 0.00 | 0.01 | 0.01 | 50 | 1009.2 |
| 20260508015347 | 58 | 307 | 2.0 | 3.0 | 0.00 | 0.01 | 0.01 | 50 | 1009.3 |
| 20260508014831 | 58 | 307 | 2.0 | 3.0 | 0.00 | 0.01 | 0.01 | 51 | 1009.3 |
| 20260508014335 | 58 | 307 | 2.0 | 3.0 | 0.00 | 0.01 | 0.01 | 51 | 1009.2 |
| 20260508013823 | 58 | 315 | 2.0 | 5.0 | 0.00 | 0.01 | 0.01 | 51 | 1009.1 |
| 20260508013328 | 58 | 322 | 3.0 | 5.0 | 0.00 | 0.01 | 0.01 | 51 | 1009.0 |
| 20260508012832 | 58 | 313 | 3.0 | 4.0 | 0.00 | 0.01 | 0.01 | 51 | 1009.0 |
| 20260508012336 | 59 | 314 | 3.0 | 4.0 | 0.00 | 0.01 | 0.01 | 50 | 1008.8 |
| 20260508011840 | 59 | 314 | 2.0 | 3.0 | 0.00 | 0.01 | 0.01 | 50 | 1008.8 |
| 20260508011345 | 59 | 314 | 2.0 | 4.0 | 0.00 | 0.01 | 0.01 | 50 | 1008.7 |
| 20260508010828 | 59 | 314 | 2.0 | 4.0 | 0.00 | 0.01 | 0.01 | 50 | 1008.6 |
| 20260508010333 | 59 | 311 | 3.0 | 4.0 | 0.00 | 0.01 | 0.01 | 51 | 1008.6 |
| 20260508005838 | 60 | 311 | 3.0 | 4.0 | 0.00 | 0.01 | 0.01 | 50 | 1008.4 |
| 20260508005325 | 61 | 311 | 3.0 | 5.0 | 0.00 | 0.01 | 0.01 | 47 | 1008.4 |
| 20260508004833 | 61 | 309 | 3.0 | 6.0 | 0.00 | 0.01 | 0.01 | 46 | 1008.2 |
| 20260508004338 | 62 | 292 | 4.0 | 9.0 | 0.00 | 0.01 | 0.01 | 45 | 1008.2 |
| 20260508003842 | 61 | 311 | 4.0 | 10.0 | 0.00 | 0.01 | 0.01 | 46 | 1008.2 |
| 20260508003326 | 61 | 305 | 4.0 | 9.0 | 0.00 | 0.01 | 0.01 | 47 | 1008.1 |
| 20260508002854 | 61 | 313 | 5.0 | 9.0 | 0.00 | 0.01 | 0.01 | 47 | 1007.9 |
| 20260508002340 | 61 | 302 | 4.0 | 11.0 | 0.00 | 0.01 | 0.01 | 47 | 1007.8 |
| 20260508001824 | 61 | 306 | 6.0 | 11.0 | 0.00 | 0.01 | 0.01 | 48 | 1007.8 |
| 20260508001329 | 61 | 310 | 4.0 | 6.0 | 0.00 | 0.01 | 0.01 | 47 | 1007.8 |
| 20260508000854 | 62 | 312 | 2.0 | 6.0 | 0.00 | 0.01 | 0.01 | 48 | 1007.7 |
| 20260508000337 | 62 | 309 | 4.0 | 7.0 | 0.00 | 0.01 | 0.01 | 44 | 1007.6 |
| 20260507235824 | 63 | 313 | 5.0 | 8.0 | 0.00 | 0.01 | 0.01 | 45 | 1007.6 |
| 20260507235351 | 63 | 293 | 4.0 | 8.0 | 0.00 | 0.01 | 0.01 | 43 | 1007.5 |
| 20260507234854 | 63 | 307 | 4.0 | 9.0 | 0.00 | 0.01 | 0.01 | 46 | 1007.5 |
| 20260507234340 | 64 | 334 | 5.0 | 10.0 | 0.00 | 0.01 | 0.01 | 45 | 1007.4 |
| 20260507233825 | 64 | 310 | 5.0 | 10.0 | 0.00 | 0.01 | 0.01 | 44 | 1007.3 |
| 20260507233349 | 64 | 323 | 6.0 | 10.0 | 0.00 | 0.01 | 0.01 | 44 | 1007.4 |
| 20260507232833 | 64 | 313 | 5.0 | 9.0 | 0.00 | 0.01 | 0.01 | 44 | 1007.2 |
| 20260507232355 | 64 | 313 | 5.0 | 11.0 | 0.00 | 0.01 | 0.01 | 43 | 1007.2 |
| 20260507231842 | 65 | 302 | 4.0 | 11.0 | 0.00 | 0.01 | 0.01 | 42 | 1007.1 |
| 20260507231327 | 65 | 301 | 8.0 | 13.0 | 0.00 | 0.01 | 0.01 | 42 | 1006.9 |
| 20260507230850 | 65 | 302 | 10.0 | 14.0 | 0.00 | 0.01 | 0.01 | 41 | 1007.0 |
| 20260507230337 | 66 | 329 | 6.0 | 15.0 | 0.00 | 0.01 | 0.01 | 42 | 1007.0 |
| 20260507225841 | 66 | 331 | 11.0 | 17.0 | 0.00 | 0.01 | 0.01 | 41 | 1006.9 |
| 20260507225325 | 67 | 323 | 9.0 | 17.0 | 0.00 | 0.01 | 0.01 | 39 | 1006.8 |
| 20260507224830 | 67 | 323 | 9.0 | 15.0 | 0.00 | 0.01 | 0.01 | 42 | 1006.6 |
| 20260507224337 | 67 | 315 | 8.0 | 13.0 | 0.00 | 0.01 | 0.01 | 40 | 1006.6 |
| 20260507223823 | 68 | 319 | 8.0 | 16.0 | 0.00 | 0.01 | 0.01 | 41 | 1006.6 |
| 20260507223331 | 68 | 339 | 10.0 | 14.0 | 0.00 | 0.01 | 0.01 | 38 | 1006.5 |
| 20260507222836 | 67 | 335 | 9.0 | 13.0 | 0.00 | 0.01 | 0.01 | 41 | 1006.5 |
| 20260507222340 | 66 | 290 | 9.0 | 15.0 | 0.00 | 0.01 | 0.01 | 42 | 1006.5 |
| 20260507221843 | 66 | 327 | 10.0 | 15.0 | 0.00 | 0.01 | 0.01 | 41 | 1006.5 |
| 20260507221329 | 68 | 315 | 8.0 | 14.0 | 0.00 | 0.01 | 0.01 | 39 | 1006.6 |
| 20260507220854 | 69 | 320 | 7.0 | 13.0 | 0.00 | 0.01 | 0.01 | 40 | 1006.4 |
| 20260507220338 | 70 | 324 | 9.0 | 13.0 | 0.00 | 0.01 | 0.01 | 38 | 1006.2 |
| 20260507215901 | 70 | 15 | 8.0 | 13.0 | 0.00 | 0.01 | 0.01 | 37 | 1006.2 |
| 20260507215326 | 70 | 337 | 9.0 | 14.0 | 0.00 | 0.02 | 0.01 | 38 | 1006.1 |
| 20260507214834 | 70 | 329 | 12.0 | 14.0 | 0.00 | 0.02 | 0.01 | 37 | 1006.0 |
| 20260507214323 | 70 | 321 | 6.0 | 10.0 | 0.00 | 0.02 | 0.01 | 40 | 1006.1 |
| 20260507213830 | 69 | 311 | 5.0 | 7.0 | 0.00 | 0.02 | 0.01 | 37 | 1006.1 |
| 20260507213355 | 67 | 355 | 3.0 | 10.0 | 0.00 | 0.02 | 0.01 | 44 | 1006.1 |
| 20260507212839 | 68 | 315 | 4.0 | 12.0 | 0.00 | 0.02 | 0.01 | 40 | 1006.1 |
| 20260507212342 | 70 | 315 | 9.0 | 11.0 | 0.00 | 0.02 | 0.01 | 36 | 1006.1 |
| 20260507211827 | 70 | 15 | 2.0 | 6.0 | 0.00 | 0.02 | 0.01 | 32 | 1006.0 |
| 20260507211331 | 70 | 302 | 3.0 | 7.0 | 0.00 | 0.02 | 0.01 | 34 | 1006.1 |
| 20260507210856 | 70 | 257 | 2.0 | 7.0 | 0.00 | 0.02 | 0.01 | 33 | 1006.1 |
| 20260507210340 | 69 | 298 | 3.0 | 8.0 | 0.00 | 0.02 | 0.01 | 42 | 1006.1 |
| 20260507205903 | 69 | 306 | 6.0 | 8.0 | 0.00 | 0.02 | 0.01 | 40 | 1006.1 |
| 20260507205326 | 70 | 10 | 3.0 | 5.0 | 0.00 | 0.03 | 0.01 | 34 | 1006.1 |
| 20260507204850 | 70 | 263 | 2.0 | 13.0 | 0.00 | 0.03 | 0.01 | 35 | 1006.2 |
| 20260507204334 | 70 | 244 | 4.0 | 13.0 | 0.00 | 0.03 | 0.01 | 36 | 1006.3 |
| 20260507203839 | 70 | 39 | 4.0 | 9.0 | 0.00 | 0.03 | 0.01 | 35 | 1006.4 |
| 20260507203326 | 70 | 342 | 5.0 | 10.0 | 0.00 | 0.03 | 0.01 | 35 | 1006.5 |
| 20260507202834 | 70 | 330 | 6.0 | 10.0 | 0.00 | 0.03 | 0.01 | 37 | 1006.6 |
| 20260507202337 | 70 | 94 | 3.0 | 11.0 | 0.00 | 0.03 | 0.01 | 36 | 1006.6 |
| 20260507201842 | 70 | 29 | 6.0 | 11.0 | 0.00 | 0.03 | 0.01 | 37 | 1006.6 |
| 20260507201326 | 69 | 339 | 3.0 | 7.0 | 0.00 | 0.03 | 0.01 | 34 | 1006.6 |
| 20260507200831 | 69 | 348 | 4.0 | 7.0 | 0.00 | 0.03 | 0.01 | 37 | 1006.6 |
| 20260507200337 | 69 | 288 | 2.0 | 6.0 | 0.00 | 0.03 | 0.01 | 37 | 1006.7 |
| 20260507195825 | 69 | 306 | 2.0 | 8.0 | 0.00 | 0.03 | 0.01 | 42 | 1006.6 |
| 20260507195329 | 68 | 250 | 3.0 | 10.0 | 0.00 | 0.03 | 0.01 | 37 | 1006.6 |
| 20260507194833 | 68 | 255 | 5.0 | 10.0 | 0.00 | 0.03 | 0.01 | 36 | 1006.8 |
| 20260507194338 | 69 | 289 | 4.0 | 8.0 | 0.00 | 0.03 | 0.01 | 38 | 1006.9 |
| 20260507193825 | 68 | 288 | 5.0 | 12.0 | 0.00 | 0.03 | 0.01 | 39 | 1006.9 |
| 20260507193331 | 68 | 338 | 5.0 | 12.0 | 0.00 | 0.03 | 0.01 | 42 | 1006.9 |
| 20260507192858 | 68 | 327 | 2.0 | 13.0 | 0.00 | 0.03 | 0.01 | 38 | 1007.1 |
| 20260507192401 | 68 | 344 | 3.0 | 13.0 | 0.00 | 0.03 | 0.01 | 41 | 1007.2 |
| 20260507191826 | 68 | 186 | 1.0 | 9.0 | 0.00 | 0.03 | 0.01 | 39 | 1007.3 |
| 20260507191334 | 68 | 274 | 4.0 | 9.0 | 0.00 | 0.03 | 0.01 | 39 | 1007.3 |
| 20260507190839 | 68 | 258 | 5.0 | 10.0 | 0.00 | 0.03 | 0.01 | 37 | 1007.4 |
| 20260507190403 | 68 | 307 | 5.0 | 11.0 | 0.00 | 0.03 | 0.01 | 41 | 1007.5 |
| 20260507185847 | 68 | 325 | 5.0 | 11.0 | 0.00 | 0.03 | 0.01 | 42 | 1007.4 |
| 20260507185328 | 68 | 40 | 5.0 | 10.0 | 0.00 | 0.03 | 0.01 | 40 | 1007.6 |
| 20260507184836 | 68 | 47 | 2.0 | 9.0 | 0.00 | 0.03 | 0.01 | 38 | 1007.5 |
| 20260507184340 | 67 | 355 | 4.0 | 9.0 | 0.00 | 0.03 | 0.01 | 40 | 1007.7 |
| 20260507183825 | 67 | 294 | 4.0 | 11.0 | 0.00 | 0.03 | 0.01 | 44 | 1007.6 |
| 20260507183332 | 67 | 360 | 4.0 | 11.0 | 0.00 | 0.03 | 0.01 | 38 | 1007.8 |
| 20260507182840 | 66 | 271 | 2.0 | 5.0 | 0.00 | 0.03 | 0.01 | 41 | 1007.8 |
| 20260507182404 | 66 | 302 | 2.0 | 10.0 | 0.00 | 0.03 | 0.01 | 38 | 1007.9 |
| 20260507181827 | 66 | 348 | 4.0 | 10.0 | 0.00 | 0.03 | 0.01 | 45 | 1008.1 |
| 20260507181332 | 67 | 326 | 2.0 | 6.0 | 0.00 | 0.03 | 0.01 | 45 | 1008.2 |
| 20260507180836 | 67 | 254 | 2.0 | 6.0 | 0.00 | 0.03 | 0.01 | 44 | 1008.2 |
| 20260507180341 | 66 | 281 | 2.0 | 10.0 | 0.00 | 0.03 | 0.01 | 46 | 1008.2 |
| 20260507175826 | 66 | 59 | 3.0 | 10.0 | 0.00 | 0.03 | 0.01 | 41 | 1008.3 |
| 20260507175329 | 65 | 323 | 2.0 | 6.0 | 0.00 | 0.04 | 0.01 | 43 | 1008.4 |
| 20260507174835 | 65 | 144 | 3.0 | 7.0 | 0.00 | 0.04 | 0.01 | 41 | 1008.4 |
| 20260507174322 | 65 | 355 | 3.0 | 11.0 | 0.00 | 0.04 | 0.01 | 41 | 1008.7 |
| 20260507173834 | 65 | 287 | 3.0 | 11.0 | 0.00 | 0.04 | 0.01 | 43 | 1008.8 |
| 20260507173339 | 65 | 312 | 4.0 | 7.0 | 0.00 | 0.04 | 0.01 | 45 | 1008.7 |
| 20260507172843 | 65 | 329 | 5.0 | 7.0 | 0.00 | 0.04 | 0.01 | 45 | 1008.8 |
| 20260507172327 | 64 | 346 | 3.0 | 9.0 | 0.00 | 0.04 | 0.01 | 45 | 1009.0 |
| 20260507171830 | 64 | 57 | 4.0 | 10.0 | 0.00 | 0.04 | 0.01 | 42 | 1009.2 |
| 20260507171338 | 64 | 325 | 5.0 | 10.0 | 0.00 | 0.04 | 0.01 | 47 | 1009.2 |
| 20260507170902 | 64 | 311 | 2.0 | 5.0 | 0.00 | 0.04 | 0.01 | 47 | 1009.2 |
| 20260507170326 | 63 | 24 | 1.0 | 11.0 | 0.00 | 0.04 | 0.01 | 44 | 1009.2 |
| 20260507165851 | 63 | 301 | 4.0 | 11.0 | 0.00 | 0.04 | 0.01 | 45 | 1009.3 |
| 20260507165333 | 63 | 36 | 2.0 | 5.0 | 0.00 | 0.04 | 0.01 | 44 | 1009.4 |
| 20260507164858 | 63 | 333 | 2.0 | 10.0 | 0.00 | 0.04 | 0.01 | 45 | 1009.6 |
| 20260507164401 | 62 | 223 | 3.0 | 12.0 | 0.00 | 0.04 | 0.01 | 44 | 1009.7 |
| 20260507163828 | 62 | 299 | 4.0 | 10.0 | 0.00 | 0.04 | 0.01 | 48 | 1009.7 |
| 20260507163352 | 62 | 347 | 2.0 | 12.0 | 0.00 | 0.04 | 0.01 | 46 | 1009.8 |
| 20260507162836 | 62 | 16 | 4.0 | 10.0 | 0.00 | 0.04 | 0.01 | 48 | 1009.9 |
| 20260507162323 | 63 | 350 | 5.0 | 9.0 | 0.00 | 0.04 | 0.01 | 47 | 1010.1 |
| 20260507161827 | 62 | 355 | 3.0 | 10.0 | 0.00 | 0.04 | 0.01 | 46 | 1010.1 |
| 20260507161334 | 62 | 346 | 5.0 | 10.0 | 0.00 | 0.04 | 0.01 | 49 | 1010.1 |
| 20260507160902 | 62 | 292 | 3.0 | 10.0 | 0.00 | 0.04 | 0.01 | 44 | 1010.1 |
| 20260507160326 | 61 | 292 | 5.0 | 12.0 | 0.00 | 0.04 | 0.01 | 49 | 1010.2 |
| 20260507155830 | 61 | 296 | 6.0 | 12.0 | 0.00 | 0.04 | 0.01 | 49 | 1010.3 |
| 20260507155332 | 61 | 360 | 5.0 | 12.0 | 0.00 | 0.04 | 0.01 | 46 | 1010.4 |
| 20260507154840 | 61 | 5 | 6.0 | 14.0 | 0.00 | 0.04 | 0.01 | 50 | 1010.4 |
| 20260507154325 | 61 | 337 | 4.0 | 14.0 | 0.00 | 0.04 | 0.01 | 48 | 1010.4 |
| 20260507153830 | 61 | 287 | 3.0 | 9.0 | 0.00 | 0.04 | 0.01 | 48 | 1010.4 |
| 20260507153334 | 60 | 82 | 4.0 | 11.0 | 0.00 | 0.04 | 0.01 | 49 | 1010.5 |
| 20260507152826 | 60 | 306 | 4.0 | 13.0 | 0.00 | 0.04 | 0.01 | 45 | 1010.6 |
| 20260507152329 | 60 | 281 | 6.0 | 13.0 | 0.00 | 0.04 | 0.01 | 46 | 1010.7 |
| 20260507151834 | 60 | 321 | 5.0 | 10.0 | 0.00 | 0.04 | 0.01 | 48 | 1010.7 |
| 20260507151338 | 59 | 338 | 4.0 | 7.0 | 0.00 | 0.04 | 0.01 | 51 | 1010.8 |
| 20260507150843 | 59 | 319 | 5.0 | 7.0 | 0.00 | 0.04 | 0.01 | 51 | 1010.8 |
| 20260507150347 | 59 | 303 | 4.0 | 7.0 | 0.00 | 0.04 | 0.01 | 49 | 1011.1 |
| 20260507145831 | 58 | 337 | 4.0 | 8.0 | 0.00 | 0.04 | 0.01 | 51 | 1011.1 |
| 20260507145335 | 58 | 344 | 5.0 | 9.0 | 0.00 | 0.09 | 0.01 | 50 | 1011.3 |
| 20260507144839 | 58 | 323 | 4.0 | 8.0 | 0.00 | 0.09 | 0.01 | 47 | 1011.4 |
| 20260507144404 | 58 | 13 | 4.0 | 8.0 | 0.00 | 0.09 | 0.01 | 47 | 1011.4 |
| 20260507143828 | 58 | 347 | 5.0 | 11.0 | 0.00 | 0.09 | 0.01 | 47 | 1011.4 |
| 20260507143332 | 58 | 342 | 5.0 | 11.0 | 0.00 | 0.09 | 0.01 | 50 | 1011.3 |
| 20260507142844 | 58 | 321 | 6.0 | 10.0 | 0.00 | 0.09 | 0.01 | 50 | 1011.4 |
| 20260507142347 | 59 | 355 | 6.0 | 10.0 | 0.00 | 0.09 | 0.01 | 54 | 1011.4 |
| 20260507141830 | 58 | 329 | 5.0 | 9.0 | 0.00 | 0.09 | 0.01 | 53 | 1011.3 |
| 20260507141335 | 57 | 322 | 5.0 | 10.0 | 0.00 | 0.09 | 0.01 | 53 | 1011.5 |
| 20260507140900 | 57 | 270 | 3.0 | 10.0 | 0.00 | 0.09 | 0.01 | 53 | 1011.5 |
| 20260507140323 | 57 | 331 | 6.0 | 9.0 | 0.00 | 0.09 | 0.01 | 56 | 1011.6 |
| 20260507135831 | 57 | 336 | 5.0 | 9.0 | 0.00 | 0.09 | 0.01 | 55 | 1011.7 |
| 20260507135334 | 57 | 313 | 5.0 | 8.0 | 0.00 | 0.16 | 0.01 | 59 | 1011.7 |
| 20260507134839 | 56 | 319 | 5.0 | 7.0 | 0.00 | 0.16 | 0.01 | 56 | 1011.8 |
| 20260507134324 | 56 | 311 | 5.0 | 8.0 | 0.00 | 0.16 | 0.01 | 55 | 1011.9 |
| 20260507133828 | 57 | 306 | 5.0 | 8.0 | 0.00 | 0.16 | 0.01 | 58 | 1012.1 |
| 20260507133333 | 56 | 316 | 5.0 | 7.0 | 0.00 | 0.16 | 0.01 | 57 | 1011.9 |
| 20260507132841 | 56 | 314 | 5.0 | 6.0 | 0.00 | 0.16 | 0.01 | 58 | 1012.2 |
| 20260507132345 | 56 | 327 | 3.0 | 6.0 | 0.00 | 0.16 | 0.01 | 58 | 1012.1 |
| 20260507131829 | 56 | 19 | 3.0 | 9.0 | 0.00 | 0.16 | 0.01 | 58 | 1012.1 |
| 20260507131333 | 55 | 338 | 5.0 | 9.0 | 0.00 | 0.16 | 0.01 | 57 | 1012.2 |
| 20260507130837 | 55 | 5 | 4.0 | 9.0 | 0.00 | 0.16 | 0.01 | 60 | 1012.2 |
| 20260507130342 | 55 | 302 | 3.0 | 7.0 | 0.00 | 0.16 | 0.01 | 61 | 1012.2 |
| 20260507125847 | 55 | 345 | 4.0 | 9.0 | 0.00 | 0.16 | 0.01 | 59 | 1012.0 |
| 20260507125329 | 55 | 321 | 5.0 | 9.0 | 0.00 | 0.21 | 0.01 | 60 | 1012.3 |
| 20260507124854 | 55 | 328 | 5.0 | 10.0 | 0.00 | 0.21 | 0.01 | 63 | 1012.1 |
| 20260507124338 | 55 | 323 | 5.0 | 10.0 | 0.00 | 0.21 | 0.01 | 60 | 1012.0 |
| 20260507123842 | 55 | 323 | 7.0 | 10.0 | 0.00 | 0.21 | 0.01 | 61 | 1012.0 |
| 20260507123327 | 55 | 332 | 4.0 | 10.0 | 0.00 | 0.21 | 0.01 | 63 | 1011.9 |
| 20260507122831 | 54 | 306 | 6.0 | 10.0 | 0.00 | 0.21 | 0.01 | 61 | 1011.8 |
| 20260507122355 | 54 | 304 | 5.0 | 9.0 | 0.00 | 0.21 | 0.01 | 62 | 1011.9 |
| 20260507121822 | 54 | 319 | 7.0 | 9.0 | 0.00 | 0.21 | 0.01 | 61 | 1011.7 |
| 20260507121327 | 54 | 324 | 4.0 | 8.0 | 0.00 | 0.21 | 0.01 | 63 | 1011.7 |
| 20260507120835 | 54 | 331 | 4.0 | 6.0 | 0.00 | 0.21 | 0.01 | 62 | 1011.7 |
| 20260507120340 | 54 | 331 | 4.0 | 6.0 | 0.00 | 0.21 | 0.01 | 61 | 1011.8 |
| 20260507115844 | 54 | 326 | 4.0 | 6.0 | 0.00 | 0.21 | 0.01 | 63 | 1012.0 |
| 20260507115327 | 54 | 323 | 3.0 | 6.0 | 0.00 | 0.24 | 0.01 | 63 | 1012.0 |
| 20260507114832 | 54 | 334 | 3.0 | 5.0 | 0.00 | 0.24 | 0.01 | 61 | 1011.9 |
| 20260507114336 | 54 | 323 | 3.0 | 7.0 | 0.00 | 0.24 | 0.01 | 62 | 1012.0 |
| 20260507113821 | 53 | 325 | 4.0 | 7.0 | 0.00 | 0.24 | 0.01 | 61 | 1012.0 |
| 20260507113328 | 53 | 348 | 3.0 | 5.0 | 0.00 | 0.24 | 0.01 | 61 | 1011.8 |
| 20260507112853 | 53 | 346 | 3.0 | 5.0 | 0.00 | 0.24 | 0.01 | 64 | 1011.8 |
| 20260507112356 | 53 | 329 | 3.0 | 5.0 | 0.00 | 0.24 | 0.01 | 64 | 1011.7 |
| 20260507111843 | 53 | 325 | 3.0 | 5.0 | 0.00 | 0.24 | 0.01 | 62 | 1011.7 |
| 20260507111348 | 53 | 325 | 3.0 | 5.0 | 0.00 | 0.24 | 0.01 | 61 | 1011.7 |
| 20260507110831 | 53 | 314 | 3.0 | 7.0 | 0.00 | 0.24 | 0.01 | 63 | 1011.7 |
| 20260507110336 | 53 | 317 | 3.0 | 7.0 | 0.00 | 0.24 | 0.01 | 62 | 1011.6 |
| 20260507105900 | 53 | 339 | 3.0 | 7.0 | 0.00 | 0.24 | 0.01 | 63 | 1011.6 |
| 20260507105343 | 53 | 326 | 2.0 | 6.0 | 0.00 | 0.25 | 0.01 | 63 | 1011.4 |
| 20260507104827 | 53 | 317 | 2.0 | 5.0 | 0.00 | 0.25 | 0.01 | 64 | 1011.2 |
| 20260507104332 | 53 | 317 | 2.0 | 5.0 | 0.00 | 0.25 | 0.01 | 64 | 1011.2 |
| 20260507103837 | 53 | 338 | 2.0 | 6.0 | 0.00 | 0.25 | 0.01 | 64 | 1011.1 |
| 20260507103341 | 53 | 327 | 3.0 | 6.0 | 0.00 | 0.25 | 0.01 | 64 | 1011.1 |
| 20260507102826 | 53 | 314 | 3.0 | 6.0 | 0.00 | 0.25 | 0.01 | 65 | 1011.0 |
| 20260507102329 | 53 | 326 | 3.0 | 6.0 | 0.00 | 0.25 | 0.01 | 63 | 1011.0 |
| 20260507101838 | 53 | 338 | 2.0 | 6.0 | 0.00 | 0.25 | 0.01 | 63 | 1010.9 |
| 20260507101342 | 53 | 342 | 3.0 | 6.0 | 0.00 | 0.25 | 0.01 | 63 | 1010.8 |
| 20260507100827 | 53 | 344 | 3.0 | 7.0 | 0.00 | 0.25 | 0.01 | 62 | 1010.7 |
| 20260507100352 | 54 | 337 | 3.0 | 9.0 | 0.00 | 0.25 | 0.01 | 64 | 1010.6 |
| 20260507095855 | 53 | 345 | 5.0 | 9.0 | 0.00 | 0.25 | 0.01 | 64 | 1010.7 |
| 20260507095338 | 53 | 320 | 4.0 | 6.0 | 0.00 | 0.25 | 0.01 | 68 | 1010.6 |
| 20260507094842 | 53 | 328 | 4.0 | 6.0 | 0.00 | 0.25 | 0.01 | 71 | 1010.5 |
| 20260507094327 | 53 | 313 | 3.0 | 4.0 | 0.00 | 0.25 | 0.01 | 73 | 1010.6 |
| 20260507093831 | 53 | 313 | 1.0 | 3.0 | 0.00 | 0.25 | 0.01 | 72 | 1010.6 |
| 20260507093337 | 53 | 313 | 2.0 | 3.0 | 0.00 | 0.25 | 0.01 | 71 | 1010.7 |
| 20260507092841 | 53 | 313 | 1.0 | 2.0 | 0.00 | 0.25 | 0.01 | 71 | 1010.7 |
| 20260507092343 | 53 | 313 | 2.0 | 3.0 | 0.00 | 0.25 | 0.01 | 70 | 1010.6 |
| 20260507091832 | 53 | 313 | 2.0 | 4.0 | 0.00 | 0.25 | 0.01 | 71 | 1010.7 |
| 20260507091336 | 54 | 313 | 2.0 | 4.0 | 0.00 | 0.25 | 0.01 | 71 | 1010.6 |
| 20260507090841 | 54 | 341 | 2.0 | 4.0 | 0.00 | 0.25 | 0.01 | 71 | 1010.5 |
| 20260507090325 | 54 | 341 | 2.0 | 3.0 | 0.00 | 0.25 | 0.01 | 71 | 1010.5 |
| 20260507085830 | 54 | 341 | 1.0 | 3.0 | 0.00 | 0.25 | 0.01 | 71 | 1010.5 |
| 20260507085333 | 54 | 341 | 1.0 | 3.0 | 0.00 | 0.25 | 0.01 | 71 | 1010.4 |
| 20260507084840 | 54 | 341 | 2.0 | 3.0 | 0.00 | 0.25 | 0.01 | 71 | 1010.5 |
| 20260507084326 | 54 | 341 | 2.0 | 3.0 | 0.00 | 0.25 | 0.01 | 72 | 1010.4 |
| 20260507083854 | 54 | 341 | 3.0 | 5.0 | 0.00 | 0.25 | 0.01 | 71 | 1010.4 |
| 20260507083338 | 54 | 341 | 2.0 | 5.0 | 0.00 | 0.25 | 0.01 | 71 | 1010.4 |
| 20260507082842 | 54 | 331 | 3.0 | 5.0 | 0.00 | 0.25 | 0.01 | 71 | 1010.4 |
| 20260507082346 | 54 | 331 | 3.0 | 6.0 | 0.00 | 0.25 | 0.01 | 71 | 1010.3 |
| 20260507081834 | 54 | 330 | 4.0 | 6.0 | 0.00 | 0.25 | 0.01 | 71 | 1010.2 |
| 20260507081341 | 54 | 341 | 4.0 | 9.0 | 0.00 | 0.25 | 0.01 | 72 | 1010.1 |
| 20260507080846 | 55 | 336 | 5.0 | 9.0 | 0.00 | 0.25 | 0.01 | 72 | 1010.1 |
| 20260507080329 | 55 | 331 | 4.0 | 7.0 | 0.00 | 0.25 | 0.01 | 74 | 1010.0 |
| 20260507075837 | 55 | 331 | 5.0 | 7.0 | 0.00 | 0.25 | 0.01 | 73 | 1009.9 |
| 20260507075340 | 55 | 337 | 3.0 | 6.0 | 0.00 | 0.25 | 0.01 | 74 | 1009.9 |
| 20260507074845 | 55 | 340 | 3.0 | 5.0 | 0.00 | 0.25 | 0.01 | 76 | 1009.9 |
| 20260507074329 | 55 | 339 | 3.0 | 6.0 | 0.00 | 0.25 | 0.01 | 77 | 1009.9 |
| 20260507073833 | 55 | 334 | 4.0 | 6.0 | 0.00 | 0.25 | 0.01 | 79 | 1009.9 |
| 20260507073338 | 55 | 340 | 2.0 | 4.0 | 0.00 | 0.25 | 0.01 | 80 | 1010.0 |
| 20260507072902 | 55 | 340 | 1.0 | 5.0 | 0.00 | 0.25 | 0.01 | 79 | 1010.1 |
| 20260507072325 | 55 | 340 | 2.0 | 5.0 | 0.01 | 0.25 | 0.01 | 79 | 1010.1 |
| 20260507071829 | 56 | 340 | 1.0 | 4.0 | 0.01 | 0.25 | 0.01 | 79 | 1010.1 |
| 20260507071357 | 56 | 340 | 2.0 | 4.0 | 0.01 | 0.25 | 0.01 | 79 | 1010.2 |
| 20260507070844 | 56 | 345 | 2.0 | 4.0 | 0.01 | 0.25 | 0.01 | 80 | 1010.1 |
| 20260507070328 | 55 | 343 | 2.0 | 3.0 | 0.01 | 0.25 | 0.01 | 81 | 1010.2 |
| 20260507065833 | 56 | 343 | 2.0 | 5.0 | 0.01 | 0.25 | 0.01 | 81 | 1010.2 |
| 20260507065336 | 55 | 343 | 2.0 | 5.0 | 0.01 | 0.25 | 0.01 | 80 | 1010.2 |
| 20260507064821 | 55 | 319 | 1.0 | 3.0 | 0.01 | 0.25 | 0.01 | 81 | 1010.3 |
| 20260507064348 | 56 | 319 | 1.0 | 3.0 | 0.01 | 0.25 | 0.01 | 81 | 1010.3 |
| 20260507063832 | 56 | 319 | 2.0 | 3.0 | 0.01 | 0.25 | 0.01 | 81 | 1010.4 |
| 20260507063335 | 56 | 319 | 1.0 | 2.0 | 0.01 | 0.25 | 0.01 | 81 | 1010.4 |
| 20260507062843 | 56 | 319 | 1.0 | 3.0 | 0.01 | 0.25 | 0.01 | 81 | 1010.3 |
| 20260507062327 | 56 | 319 | 1.0 | 5.0 | 0.00 | 0.24 | 0.00 | 81 | 1010.3 |
| 20260507061831 | 56 | 319 | 2.0 | 5.0 | 0.00 | 0.24 | 0.00 | 80 | 1010.2 |
| 20260507061336 | 56 | 307 | 3.0 | 4.0 | 0.00 | 0.24 | 0.00 | 79 | 1010.3 |
| 20260507060823 | 57 | 307 | 2.0 | 4.0 | 0.00 | 0.24 | 0.00 | 78 | 1010.2 |
| 20260507060331 | 57 | 307 | 2.0 | 4.0 | 0.00 | 0.24 | 0.00 | 78 | 1010.4 |
| 20260507055836 | 57 | 307 | 2.0 | 4.0 | 0.00 | 0.24 | 0.00 | 77 | 1010.3 |
| 20260507055339 | 57 | 320 | 2.0 | 5.0 | 0.00 | 0.24 | 0.00 | 77 | 1010.1 |
| 20260507054843 | 57 | 320 | 2.0 | 6.0 | 0.00 | 0.24 | 0.00 | 77 | 1010.1 |
| 20260507054346 | 57 | 323 | 3.0 | 6.0 | 0.00 | 0.24 | 0.00 | 76 | 1009.9 |
| 20260507053833 | 57 | 330 | 4.0 | 6.0 | 0.00 | 0.24 | 0.00 | 76 | 1009.9 |
| 20260507053357 | 57 | 327 | 3.0 | 9.0 | 0.00 | 0.24 | 0.00 | 76 | 1009.9 |
| 20260507052841 | 57 | 325 | 5.0 | 10.0 | 0.00 | 0.24 | 0.00 | 76 | 1010.0 |
| 20260507052324 | 57 | 307 | 6.0 | 10.0 | 0.00 | 0.24 | 0.00 | 75 | 1010.1 |
| 20260507051829 | 57 | 346 | 4.0 | 8.0 | 0.00 | 0.24 | 0.00 | 75 | 1009.8 |
| 20260507051334 | 57 | 329 | 5.0 | 9.0 | 0.00 | 0.24 | 0.00 | 75 | 1009.8 |
| 20260507050842 | 58 | 355 | 4.0 | 9.0 | 0.00 | 0.24 | 0.00 | 75 | 1009.8 |
| 20260507050345 | 58 | 342 | 4.0 | 10.0 | 0.00 | 0.24 | 0.00 | 75 | 1009.8 |
| 20260507045831 | 58 | 333 | 6.0 | 10.0 | 0.00 | 0.24 | 0.00 | 75 | 1009.8 |
| 20260507045358 | 58 | 342 | 5.0 | 9.0 | 0.00 | 0.24 | 0.00 | 76 | 1009.9 |
| 20260507044842 | 58 | 325 | 5.0 | 10.0 | 0.00 | 0.24 | 0.00 | 77 | 1010.1 |
| 20260507044326 | 58 | 323 | 4.0 | 10.0 | 0.00 | 0.24 | 0.00 | 76 | 1009.9 |
| 20260507043832 | 58 | 342 | 6.0 | 10.0 | 0.00 | 0.24 | 0.00 | 76 | 1009.9 |
| 20260507043340 | 58 | 346 | 4.0 | 11.0 | 0.00 | 0.24 | 0.00 | 76 | 1009.8 |
| 20260507042825 | 58 | 334 | 5.0 | 10.0 | 0.00 | 0.24 | 0.00 | 77 | 1009.9 |
| 20260507042328 | 58 | 336 | 6.0 | 10.0 | 0.00 | 0.24 | 0.00 | 77 | 1010.1 |
| 20260507041833 | 58 | 348 | 4.0 | 12.0 | 0.00 | 0.24 | 0.00 | 77 | 1010.1 |
| 20260507041320 | 58 | 336 | 6.0 | 14.0 | 0.00 | 0.24 | 0.00 | 76 | 1009.9 |
| 20260507040848 | 58 | 317 | 9.0 | 14.0 | 0.00 | 0.24 | 0.00 | 78 | 1009.9 |
| 20260507040332 | 58 | 322 | 3.0 | 6.0 | 0.00 | 0.24 | 0.00 | 78 | 1009.9 |
| 20260507035855 | 58 | 335 | 2.0 | 6.0 | 0.00 | 0.24 | 0.00 | 77 | 1010.0 |
| 20260507035338 | 58 | 319 | 3.0 | 7.0 | 0.00 | 0.24 | 0.24 | 77 | 1010.4 |
| 20260507034842 | 58 | 331 | 3.0 | 7.0 | 0.00 | 0.24 | 0.24 | 78 | 1010.4 |
| 20260507034327 | 58 | 342 | 2.0 | 4.0 | 0.00 | 0.24 | 0.24 | 78 | 1010.1 |
| 20260507033831 | 58 | 20 | 2.0 | 5.0 | 0.00 | 0.24 | 0.24 | 77 | 1009.8 |
| 20260507033356 | 58 | 355 | 1.0 | 5.0 | 0.00 | 0.24 | 0.24 | 77 | 1009.6 |
| 20260507032840 | 58 | 345 | 3.0 | 6.0 | 0.00 | 0.24 | 0.24 | 78 | 1009.6 |
| 20260507032343 | 58 | 355 | 4.0 | 6.0 | 0.00 | 0.24 | 0.24 | 79 | 1009.8 |
| 20260507031828 | 58 | 332 | 2.0 | 5.0 | 0.00 | 0.24 | 0.24 | 79 | 1009.8 |
| 20260507031352 | 58 | 347 | 3.0 | 9.0 | 0.00 | 0.24 | 0.24 | 78 | 1009.9 |
| 20260507030836 | 58 | 344 | 4.0 | 9.0 | 0.00 | 0.24 | 0.24 | 79 | 1009.8 |
| 20260507030401 | 58 | 327 | 5.0 | 8.0 | 0.00 | 0.24 | 0.24 | 79 | 1010.0 |